Time,TemperatureF,DewpointF,PressureIn,WindDirection,WindDirectionDegrees,WindSpeedMPH,WindSpeedGustMPH,Humidity,HourlyPrecipIn,Conditions,Clouds,dailyrainin,SoftwareType,DateUTC
2013-03-12 00:06:00,28.4,13.9,23.51,North,353,0.0,0.0,54,0.00,,,0.00,WeatherTracker,2013-03-12 07:06:00,
2013-03-12 00:11:00,28.4,13.5,23.51,North,353,0.0,0.0,53,0.00,,,0.00,WeatherTracker,2013-03-12 07:11:00,
2013-03-12 00:16:00,28.4,13.5,23.51,North,353,0.0,0.0,53,0.00,,,0.00,WeatherTracker,2013-03-12 07:16:00,
2013-03-12 00:21:00,28.4,13.5,23.51,North,353,0.0,0.0,53,0.00,,,0.00,WeatherTracker,2013-03-12 07:21:00,
2013-03-12 00:26:00,28.4,13.5,23.51,North,353,0.0,0.0,53,0.00,,,0.00,WeatherTracker,2013-03-12 07:26:00,
2013-03-12 00:31:00,28.4,13.5,23.51,North,353,0.0,0.0,53,0.00,,,0.00,WeatherTracker,2013-03-12 07:31:00,
2013-03-12 00:41:00,28.0,13.6,23.51,North,353,0.0,0.0,54,0.00,,,0.00,WeatherTracker,2013-03-12 07:41:00,
2013-03-12 00:46:00,28.0,13.6,23.51,North,353,0.0,0.0,54,0.00,,,0.00,WeatherTracker,2013-03-12 07:46:00,
2013-03-12 00:51:00,27.9,13.4,23.51,North,353,0.0,0.0,54,0.00,,,0.00,WeatherTracker,2013-03-12 07:51:00,
2013-03-12 00:56:00,27.9,13.4,23.51,North,353,0.0,0.0,54,0.00,,,0.00,WeatherTracker,2013-03-12 07:56:00,
2013-03-12 01:06:00,27.7,13.2,23.48,North,353,0.0,0.0,54,0.00,,,0.00,WeatherTracker,2013-03-12 08:06:00,
2013-03-12 01:16:00,27.9,13.8,23.51,North,353,0.0,0.0,55,0.00,,,0.00,WeatherTracker,2013-03-12 08:16:00,
2013-03-12 01:21:00,27.7,13.6,23.51,North,353,0.0,0.0,55,0.00,,,0.00,WeatherTracker,2013-03-12 08:21:00,
2013-03-12 01:31:00,27.3,12.9,23.51,North,353,0.0,0.0,54,0.00,,,0.00,WeatherTracker,2013-03-12 08:31:00,
2013-03-12 01:41:00,27.0,13.0,23.51,North,353,0.0,0.0,55,0.00,,,0.00,WeatherTracker,2013-03-12 08:41:00,
2013-03-12 01:46:00,26.8,12.8,23.51,North,353,0.0,0.0,55,0.00,,,0.00,WeatherTracker,2013-03-12 08:46:00,
2013-03-12 01:51:00,26.6,13.0,23.51,North,353,0.0,0.0,56,0.00,,,0.00,WeatherTracker,2013-03-12 08:51:00,
2013-03-12 02:01:00,26.2,12.7,23.51,North,353,0.0,0.0,56,0.00,,,0.00,WeatherTracker,2013-03-12 09:01:00,
2013-03-12 02:06:00,26.4,12.9,23.51,North,353,0.0,0.0,56,0.00,,,0.00,WeatherTracker,2013-03-12 09:06:00,
2013-03-12 02:11:00,26.2,12.7,23.51,North,353,0.0,0.0,56,0.00,,,0.00,WeatherTracker,2013-03-12 09:11:00,
2013-03-12 02:16:00,26.2,12.7,23.51,North,353,0.0,0.0,56,0.00,,,0.00,WeatherTracker,2013-03-12 09:16:00,
2013-03-12 02:21:00,26.2,13.1,23.51,North,353,0.0,0.0,57,0.00,,,0.00,WeatherTracker,2013-03-12 09:21:00,
2013-03-12 02:26:00,26.1,12.9,23.51,North,353,0.0,0.0,57,0.00,,,0.00,WeatherTracker,2013-03-12 09:26:00,
2013-03-12 02:31:00,26.1,12.9,23.48,North,353,0.0,0.0,57,0.00,,,0.00,WeatherTracker,2013-03-12 09:31:00,
2013-03-12 02:36:00,26.1,12.9,23.48,North,353,0.0,0.0,57,0.00,,,0.00,WeatherTracker,2013-03-12 09:36:00,
2013-03-12 02:46:00,26.1,12.9,23.48,North,353,0.0,0.0,57,0.00,,,0.00,WeatherTracker,2013-03-12 09:46:00,
2013-03-12 02:51:00,25.7,12.2,23.48,North,353,0.0,0.0,56,0.00,,,0.00,WeatherTracker,2013-03-12 09:51:00,
2013-03-12 02:56:00,25.5,12.0,23.48,North,353,0.0,0.0,56,0.00,,,0.00,WeatherTracker,2013-03-12 09:56:00,
2013-03-12 03:06:00,25.7,12.6,23.48,North,353,0.0,0.0,57,0.00,,,0.00,WeatherTracker,2013-03-12 10:06:00,
2013-03-12 03:16:00,25.3,12.3,23.48,North,353,0.0,0.0,57,0.00,,,0.00,WeatherTracker,2013-03-12 10:16:00,
2013-03-12 03:26:00,25.2,11.7,23.48,North,353,0.0,0.0,56,0.00,,,0.00,WeatherTracker,2013-03-12 10:26:00,
2013-03-12 03:31:00,25.0,11.9,23.48,North,353,0.0,0.0,57,0.00,,,0.00,WeatherTracker,2013-03-12 10:31:00,
2013-03-12 03:36:00,24.8,11.8,23.48,North,353,0.0,0.0,57,0.00,,,0.00,WeatherTracker,2013-03-12 10:36:00,
2013-03-12 03:46:00,24.8,12.1,23.48,North,353,0.0,0.0,58,0.00,,,0.00,WeatherTracker,2013-03-12 10:46:00,
2013-03-12 03:51:00,24.8,12.1,23.48,North,353,0.0,0.0,58,0.00,,,0.00,WeatherTracker,2013-03-12 10:51:00,
2013-03-12 04:01:00,24.8,12.1,23.48,North,353,0.0,0.0,58,0.00,,,0.00,WeatherTracker,2013-03-12 11:01:00,
2013-03-12 04:06:00,24.6,12.0,23.48,North,353,0.0,0.0,58,0.00,,,0.00,WeatherTracker,2013-03-12 11:06:00,
2013-03-12 04:16:00,24.4,11.8,23.48,North,353,0.0,0.0,58,0.00,,,0.00,WeatherTracker,2013-03-12 11:16:00,
2013-03-12 04:26:00,24.1,11.5,23.48,North,353,0.0,0.0,58,0.00,,,0.00,WeatherTracker,2013-03-12 11:26:00,
2013-03-12 04:31:00,24.1,11.5,23.48,North,353,0.0,0.0,58,0.00,,,0.00,WeatherTracker,2013-03-12 11:31:00,
2013-03-12 04:36:00,24.1,11.9,23.48,North,353,0.0,0.0,59,0.00,,,0.00,WeatherTracker,2013-03-12 11:36:00,
2013-03-12 04:46:00,23.7,11.1,23.48,North,353,0.0,0.0,58,0.00,,,0.00,WeatherTracker,2013-03-12 11:46:00,
2013-03-12 04:51:00,23.5,11.0,23.48,North,353,0.0,0.0,58,0.00,,,0.00,WeatherTracker,2013-03-12 11:51:00,
2013-03-12 04:56:00,23.7,11.5,23.48,North,353,0.0,0.0,59,0.00,,,0.00,WeatherTracker,2013-03-12 11:56:00,
2013-03-12 05:06:00,23.7,11.5,23.48,ENE,69,0.0,0.0,59,0.00,,,0.00,WeatherTracker,2013-03-12 12:06:00,
2013-03-12 05:11:00,23.5,11.0,23.48,ENE,75,0.0,0.0,58,0.00,,,0.00,WeatherTracker,2013-03-12 12:11:00,
2013-03-12 05:16:00,23.2,10.6,23.48,ENE,75,0.0,0.0,58,0.00,,,0.00,WeatherTracker,2013-03-12 12:16:00,
2013-03-12 05:21:00,23.0,10.8,23.48,ENE,75,0.0,0.0,59,0.00,,,0.00,WeatherTracker,2013-03-12 12:21:00,
2013-03-12 05:31:00,23.4,11.2,23.48,ENE,75,0.0,0.0,59,0.00,,,0.00,WeatherTracker,2013-03-12 12:31:00,
2013-03-12 05:36:00,23.4,11.2,23.48,ENE,75,0.0,0.0,59,0.00,,,0.00,WeatherTracker,2013-03-12 12:36:00,
2013-03-12 05:41:00,23.5,11.3,23.48,East,95,0.0,0.0,59,0.00,,,0.00,WeatherTracker,2013-03-12 12:41:00,
2013-03-12 05:51:00,23.2,11.0,23.51,East,95,0.0,0.0,59,0.00,,,0.00,WeatherTracker,2013-03-12 12:51:00,
2013-03-12 05:56:00,23.0,11.2,23.51,East,95,0.0,0.0,60,0.00,,,0.00,WeatherTracker,2013-03-12 12:56:00,
2013-03-12 06:01:00,23.0,11.2,23.51,East,95,0.0,0.0,60,0.00,,,0.00,WeatherTracker,2013-03-12 13:01:00,
2013-03-12 06:06:00,23.2,11.4,23.51,East,95,0.0,0.0,60,0.00,,,0.00,WeatherTracker,2013-03-12 13:06:00,
2013-03-12 06:11:00,23.4,11.6,23.51,East,95,0.0,0.0,60,0.00,,,0.00,WeatherTracker,2013-03-12 13:11:00,
2013-03-12 06:21:00,23.2,11.4,23.51,East,101,0.0,0.0,60,0.00,,,0.00,WeatherTracker,2013-03-12 13:21:00,
2013-03-12 06:26:00,22.8,10.7,23.51,East,101,0.0,0.0,59,0.00,,,0.00,WeatherTracker,2013-03-12 13:26:00,
2013-03-12 06:36:00,22.8,11.0,23.51,East,100,0.0,0.0,60,0.00,,,0.00,WeatherTracker,2013-03-12 13:36:00,
2013-03-12 06:41:00,22.8,10.7,23.51,East,101,0.0,0.0,59,0.00,,,0.00,WeatherTracker,2013-03-12 13:41:00,
2013-03-12 06:46:00,22.6,10.9,23.51,East,100,0.0,0.0,60,0.00,,,0.00,WeatherTracker,2013-03-12 13:46:00,
2013-03-12 06:56:00,22.5,10.7,23.51,East,100,0.0,0.0,60,0.00,,,0.00,WeatherTracker,2013-03-12 13:56:00,
2013-03-12 07:06:00,22.8,11.0,23.51,East,101,0.0,0.0,60,0.00,,,0.00,WeatherTracker,2013-03-12 14:06:00,
2013-03-12 07:11:00,22.8,11.0,23.51,East,100,0.0,0.0,60,0.00,,,0.00,WeatherTracker,2013-03-12 14:11:00,
2013-03-12 07:16:00,23.0,11.6,23.54,East,100,0.0,0.0,61,0.00,,,0.00,WeatherTracker,2013-03-12 14:16:00,
2013-03-12 07:21:00,23.0,11.2,23.54,East,101,0.0,0.0,60,0.00,,,0.00,WeatherTracker,2013-03-12 14:21:00,
2013-03-12 07:26:00,23.2,11.4,23.54,East,100,0.0,0.0,60,0.00,,,0.00,WeatherTracker,2013-03-12 14:26:00,
2013-03-12 07:31:00,23.5,11.7,23.54,East,100,0.0,0.0,60,0.00,,,0.00,WeatherTracker,2013-03-12 14:31:00,
2013-03-12 07:36:00,23.7,11.5,23.54,East,101,0.0,0.0,59,0.00,,,0.00,WeatherTracker,2013-03-12 14:36:00,
2013-03-12 07:41:00,24.1,11.9,23.54,East,100,0.0,0.0,59,0.00,,,0.00,WeatherTracker,2013-03-12 14:41:00,
2013-03-12 07:46:00,24.3,12.0,23.54,East,101,0.0,0.0,59,0.00,,,0.00,WeatherTracker,2013-03-12 14:46:00,
2013-03-12 07:51:00,24.8,12.9,23.54,East,100,0.0,0.0,60,0.00,,,0.00,WeatherTracker,2013-03-12 14:51:00,
2013-03-12 08:01:00,25.9,13.9,23.54,East,101,0.0,0.0,60,0.00,,,0.00,WeatherTracker,2013-03-12 15:01:00,
2013-03-12 08:06:00,26.4,14.4,23.54,East,101,0.0,0.0,60,0.00,,,0.00,WeatherTracker,2013-03-12 15:06:00,
2013-03-12 08:11:00,27.1,15.1,23.54,East,101,0.0,0.0,60,0.00,,,0.00,WeatherTracker,2013-03-12 15:11:00,
2013-03-12 08:21:00,29.3,16.8,23.54,East,101,0.0,0.0,59,0.00,,,0.00,WeatherTracker,2013-03-12 15:21:00,
2013-03-12 08:26:00,30.2,17.6,23.54,East,100,0.0,0.0,59,0.00,,,0.00,WeatherTracker,2013-03-12 15:26:00,
2013-03-12 08:31:00,32.4,17.6,23.54,NNE,22,0.0,0.0,54,0.00,,,0.00,WeatherTracker,2013-03-12 15:31:00,
2013-03-12 08:41:00,36.7,16.8,23.54,North,353,0.0,0.0,44,0.00,,,0.00,WeatherTracker,2013-03-12 15:41:00,
2013-03-12 08:51:00,40.1,17.7,23.54,WNW,284,0.0,0.0,40,0.00,,,0.00,WeatherTracker,2013-03-12 15:51:00,
2013-03-12 09:01:00,41.5,17.8,23.56,SSW,198,0.0,3.0,38,0.00,,,0.00,WeatherTracker,2013-03-12 16:01:00,
2013-03-12 09:06:00,42.4,18.6,23.56,ENE,65,0.0,3.0,38,0.00,,,0.00,WeatherTracker,2013-03-12 16:06:00,
2013-03-12 09:16:00,43.5,18.4,23.56,SE,146,2.0,2.0,36,0.00,,,0.00,WeatherTracker,2013-03-12 16:16:00,
2013-03-12 09:21:00,43.9,18.7,23.56,SSW,206,0.0,4.0,36,0.00,,,0.00,WeatherTracker,2013-03-12 16:21:00,
2013-03-12 09:26:00,44.1,18.8,23.56,SW,224,0.0,4.0,36,0.00,,,0.00,WeatherTracker,2013-03-12 16:26:00,
2013-03-12 09:36:00,44.8,18.8,23.56,SSW,205,3.0,8.0,35,0.00,,,0.00,WeatherTracker,2013-03-12 16:36:00,
2013-03-12 09:41:00,45.0,18.3,23.56,SSW,210,0.0,3.0,34,0.00,,,0.00,WeatherTracker,2013-03-12 16:41:00,
2013-03-12 09:51:00,45.9,18.4,23.56,ESE,113,3.0,0.0,33,0.00,,,0.00,WeatherTracker,2013-03-12 16:51:00,
2013-03-12 09:56:00,46.0,18.6,23.56,East,91,0.0,4.0,33,0.00,,,0.00,WeatherTracker,2013-03-12 16:56:00,
2013-03-12 10:01:00,46.2,18.0,23.56,ENE,66,0.0,4.0,32,0.00,,,0.00,WeatherTracker,2013-03-12 17:01:00,
2013-03-12 10:11:00,46.8,17.7,23.56,SE,124,2.0,4.0,31,0.00,,,0.00,WeatherTracker,2013-03-12 17:11:00,
2013-03-12 10:16:00,46.9,17.9,23.56,South,179,4.0,5.0,31,0.00,,,0.00,WeatherTracker,2013-03-12 17:16:00,
2013-03-12 10:26:00,47.3,17.5,23.56,ESE,113,0.0,3.0,30,0.00,,,0.00,WeatherTracker,2013-03-12 17:26:00,
2013-03-12 10:31:00,47.8,18.7,23.56,SSE,165,2.0,4.0,31,0.00,,,0.00,WeatherTracker,2013-03-12 17:31:00,
2013-03-12 10:36:00,48.2,18.2,23.56,NNW,327,0.0,0.0,30,0.00,,,0.00,WeatherTracker,2013-03-12 17:36:00,
2013-03-12 10:41:00,48.7,17.9,23.56,South,169,0.0,3.0,29,0.00,,,0.00,WeatherTracker,2013-03-12 17:41:00,
2013-03-12 10:47:00,48.9,18.1,23.56,East,92,3.0,0.0,29,0.00,,,0.00,WeatherTracker,2013-03-12 17:47:00,
2013-03-12 11:01:00,49.6,18.7,23.56,South,178,0.0,3.0,29,0.00,,,0.00,WeatherTracker,2013-03-12 18:01:00,
2013-03-12 11:16:00,50.0,18.2,23.56,NE,48,4.0,0.0,28,0.00,,,0.00,WeatherTracker,2013-03-12 18:16:00,
2013-03-12 11:21:00,50.4,19.3,23.56,SSE,160,4.0,4.0,29,0.00,,,0.00,WeatherTracker,2013-03-12 18:21:00,
2013-03-12 11:31:00,50.7,18.0,23.56,NW,312,2.0,6.0,27,0.00,,,0.00,WeatherTracker,2013-03-12 18:31:00,
2013-03-12 11:36:00,50.9,18.1,23.56,NNW,335,3.0,3.0,27,0.00,,,0.00,WeatherTracker,2013-03-12 18:36:00,
2013-03-12 11:46:00,51.3,18.4,23.56,NW,320,3.0,0.0,27,0.00,,,0.00,WeatherTracker,2013-03-12 18:46:00,
2013-03-12 11:51:00,51.4,18.6,23.56,North,353,0.0,3.0,27,0.00,,,0.00,WeatherTracker,2013-03-12 18:51:00,
2013-03-12 11:56:00,51.6,19.6,23.56,ESE,112,3.0,0.0,28,0.00,,,0.00,WeatherTracker,2013-03-12 18:56:00,
2013-03-12 12:01:00,51.6,18.7,23.56,SSE,157,2.0,4.0,27,0.00,,,0.00,WeatherTracker,2013-03-12 19:01:00,
2013-03-12 12:06:00,51.6,18.7,23.56,ENE,66,2.0,5.0,27,0.00,,,0.00,WeatherTracker,2013-03-12 19:06:00,
2013-03-12 12:16:00,51.8,18.9,23.56,North,0,0.0,0.0,27,0.00,,,0.00,WeatherTracker,2013-03-12 19:16:00,
2013-03-12 12:21:00,52.0,19.1,23.56,ENE,57,2.0,4.0,27,0.00,,,0.00,WeatherTracker,2013-03-12 19:21:00,
2013-03-12 12:31:00,52.0,19.1,23.56,SSE,167,4.0,0.0,27,0.00,,,0.00,WeatherTracker,2013-03-12 19:31:00,
2013-03-12 12:36:00,52.3,19.4,23.56,North,0,0.0,0.0,27,0.00,,,0.00,WeatherTracker,2013-03-12 19:36:00,
2013-03-12 12:41:00,52.5,18.6,23.56,North,0,2.0,2.0,26,0.00,,,0.00,WeatherTracker,2013-03-12 19:41:00,
2013-03-12 12:51:00,52.3,19.4,23.56,SSE,164,4.0,4.0,27,0.00,,,0.00,WeatherTracker,2013-03-12 19:51:00,
2013-03-12 12:56:00,52.3,19.4,23.56,South,182,3.0,0.0,27,0.00,,,0.00,WeatherTracker,2013-03-12 19:56:00,
2013-03-12 13:06:00,52.3,18.5,23.54,NNW,331,3.0,4.0,26,0.00,,,0.00,WeatherTracker,2013-03-12 20:06:00,
2013-03-12 13:11:00,52.5,18.6,23.54,East,96,0.0,3.0,26,0.00,,,0.00,WeatherTracker,2013-03-12 20:11:00,
2013-03-12 13:17:00,52.3,18.5,23.54,SE,131,0.0,0.0,26,0.00,,,0.00,WeatherTracker,2013-03-12 20:17:00,
2013-03-12 13:26:00,52.5,18.6,23.54,East,89,2.0,3.0,26,0.00,,,0.00,WeatherTracker,2013-03-12 20:26:00,
2013-03-12 13:31:00,52.5,19.5,23.54,ENE,63,0.0,5.0,27,0.00,,,0.00,WeatherTracker,2013-03-12 20:31:00,
2013-03-12 13:41:00,52.9,18.9,23.54,NW,317,0.0,0.0,26,0.00,,,0.00,WeatherTracker,2013-03-12 20:41:00,
2013-03-12 13:51:00,53.1,19.1,23.54,East,100,0.0,2.0,26,0.00,,,0.00,WeatherTracker,2013-03-12 20:51:00,
2013-03-12 13:56:00,53.1,19.1,23.54,SSE,159,3.0,4.0,26,0.00,,,0.00,WeatherTracker,2013-03-12 20:56:00,
2013-03-12 14:01:00,53.1,19.1,23.54,NNW,348,0.0,0.0,26,0.00,,,0.00,WeatherTracker,2013-03-12 21:01:00,
2013-03-12 14:06:00,52.9,18.9,23.54,SSE,150,0.0,0.0,26,0.00,,,0.00,WeatherTracker,2013-03-12 21:06:00,
2013-03-12 14:16:00,52.9,18.9,23.54,SE,131,0.0,0.0,26,0.00,,,0.00,WeatherTracker,2013-03-12 21:16:00,
2013-03-12 14:26:00,52.9,18.9,23.54,ENE,76,3.0,0.0,26,0.00,,,0.00,WeatherTracker,2013-03-12 21:26:00,
2013-03-12 14:31:00,52.5,18.6,23.54,NW,305,3.0,3.0,26,0.00,,,0.00,WeatherTracker,2013-03-12 21:31:00,
2013-03-12 14:37:00,52.5,18.6,23.54,East,97,2.0,0.0,26,0.00,,,0.00,WeatherTracker,2013-03-12 21:37:00,
2013-03-12 14:46:00,53.1,19.1,23.54,NNW,348,0.0,0.0,26,0.00,,,0.00,WeatherTracker,2013-03-12 21:46:00,
2013-03-12 14:52:00,52.9,18.9,23.54,North,8,0.0,0.0,26,0.00,,,0.00,WeatherTracker,2013-03-12 21:52:00,
2013-03-12 15:01:00,52.5,18.6,23.54,NW,320,0.0,0.0,26,0.00,,,0.00,WeatherTracker,2013-03-12 22:01:00,
2013-03-12 15:06:00,52.5,18.6,23.54,NNW,340,0.0,0.0,26,0.00,,,0.00,WeatherTracker,2013-03-12 22:06:00,
2013-03-12 15:11:00,52.7,18.8,23.54,NNW,343,0.0,0.0,26,0.00,,,0.00,WeatherTracker,2013-03-12 22:11:00,
2013-03-12 15:21:00,52.5,18.6,23.54,NNW,332,0.0,0.0,26,0.00,,,0.00,WeatherTracker,2013-03-12 22:21:00,
2013-03-12 15:31:00,52.3,18.5,23.54,SSE,158,0.0,0.0,26,0.00,,,0.00,WeatherTracker,2013-03-12 22:31:00,
2013-03-12 15:36:00,52.3,18.5,23.54,WSW,243,2.0,0.0,26,0.00,,,0.00,WeatherTracker,2013-03-12 22:36:00,
2013-03-12 15:46:00,52.2,18.3,23.54,WNW,301,3.0,4.0,26,0.00,,,0.00,WeatherTracker,2013-03-12 22:46:00,
2013-03-12 15:51:00,52.5,18.6,23.54,SW,218,0.0,3.0,26,0.00,,,0.00,WeatherTracker,2013-03-12 22:51:00,
2013-03-12 15:56:00,52.3,18.5,23.54,SSW,199,0.0,0.0,26,0.00,,,0.00,WeatherTracker,2013-03-12 22:56:00,
2013-03-12 16:02:00,51.6,17.9,23.54,North,353,0.0,0.0,26,0.00,,,0.00,WeatherTracker,2013-03-12 23:02:00,
2013-03-12 16:11:00,52.2,18.3,23.54,WNW,301,0.0,0.0,26,0.00,,,0.00,WeatherTracker,2013-03-12 23:11:00,
2013-03-12 16:17:00,52.0,18.2,23.54,NW,309,0.0,4.0,26,0.00,,,0.00,WeatherTracker,2013-03-12 23:17:00,
2013-03-12 16:26:00,51.4,15.9,23.54,NNE,15,0.0,0.0,24,0.00,,,0.00,WeatherTracker,2013-03-12 23:26:00,
2013-03-12 16:36:00,50.7,17.1,23.54,NW,314,0.0,0.0,26,0.00,,,0.00,WeatherTracker,2013-03-12 23:36:00,
2013-03-12 16:47:00,50.9,17.3,23.54,WNW,299,0.0,0.0,26,0.00,,,0.00,WeatherTracker,2013-03-12 23:47:00,
2013-03-12 16:56:00,50.4,16.8,23.54,NW,319,0.0,0.0,26,0.00,,,0.00,WeatherTracker,2013-03-12 23:56:00,
2013-03-12 17:01:00,50.4,16.8,23.54,SSW,195,0.0,0.0,26,0.00,,,0.00,WeatherTracker,2013-03-13 00:01:00,
2013-03-12 17:06:00,50.0,17.4,23.54,WSW,237,0.0,0.0,27,0.00,,,0.00,WeatherTracker,2013-03-13 00:06:00,
2013-03-12 17:16:00,48.9,16.4,23.54,NE,50,0.0,0.0,27,0.00,,,0.00,WeatherTracker,2013-03-13 00:16:00,
2013-03-12 17:22:00,48.6,16.1,23.54,SSW,212,0.0,0.0,27,0.00,,,0.00,WeatherTracker,2013-03-13 00:22:00,
2013-03-12 17:32:00,47.7,16.2,23.54,SSE,163,0.0,0.0,28,0.00,,,0.00,WeatherTracker,2013-03-13 00:32:00,
2013-03-12 17:41:00,47.3,15.9,23.54,West,279,0.0,0.0,28,0.00,,,0.00,WeatherTracker,2013-03-13 00:41:00,
2013-03-12 17:51:00,46.6,16.0,23.54,West,278,0.0,0.0,29,0.00,,,0.00,WeatherTracker,2013-03-13 00:51:00,
2013-03-12 17:56:00,46.2,16.5,23.54,West,278,0.0,0.0,30,0.00,,,0.00,WeatherTracker,2013-03-13 00:56:00,
2013-03-12 18:06:00,46.4,15.9,23.54,West,278,0.0,0.0,29,0.00,,,0.00,WeatherTracker,2013-03-13 01:06:00,
2013-03-12 18:11:00,46.2,15.7,23.54,West,280,0.0,0.0,29,0.00,,,0.00,WeatherTracker,2013-03-13 01:11:00,
2013-03-12 18:21:00,46.0,16.4,23.54,West,280,0.0,0.0,30,0.00,,,0.00,WeatherTracker,2013-03-13 01:21:00,
2013-03-12 18:31:00,45.5,15.9,23.54,West,280,0.0,0.0,30,0.00,,,0.00,WeatherTracker,2013-03-13 01:31:00,
2013-03-12 18:36:00,45.1,15.6,23.54,West,280,0.0,0.0,30,0.00,,,0.00,WeatherTracker,2013-03-13 01:36:00,
2013-03-12 18:46:00,44.8,15.3,23.54,West,280,0.0,0.0,30,0.00,,,0.00,WeatherTracker,2013-03-13 01:46:00,
2013-03-12 18:52:00,44.8,14.5,23.54,West,280,0.0,0.0,29,0.00,,,0.00,WeatherTracker,2013-03-13 01:52:00,
2013-03-12 19:01:00,44.6,15.1,23.54,West,280,0.0,0.0,30,0.00,,,0.00,WeatherTracker,2013-03-13 02:01:00,
2013-03-12 19:11:00,43.2,15.3,23.54,West,280,0.0,0.0,32,0.00,,,0.00,WeatherTracker,2013-03-13 02:11:00,
2013-03-12 19:16:00,42.6,15.6,23.56,West,280,0.0,0.0,33,0.00,,,0.00,WeatherTracker,2013-03-13 02:16:00,
2013-03-12 19:21:00,42.4,15.4,23.56,West,280,0.0,0.0,33,0.00,,,0.00,WeatherTracker,2013-03-13 02:21:00,
2013-03-12 19:31:00,41.7,16.1,23.56,West,280,0.0,0.0,35,0.00,,,0.00,WeatherTracker,2013-03-13 02:31:00,
2013-03-12 19:41:00,41.0,17.4,23.56,West,280,0.0,0.0,38,0.00,,,0.00,WeatherTracker,2013-03-13 02:41:00,
2013-03-12 19:46:00,40.8,17.8,23.56,West,280,0.0,0.0,39,0.00,,,0.00,WeatherTracker,2013-03-13 02:46:00,
2013-03-12 19:57:00,40.1,17.7,23.56,West,280,0.0,0.0,40,0.00,,,0.00,WeatherTracker,2013-03-13 02:57:00,
2013-03-12 20:07:00,39.6,17.8,23.56,West,280,0.0,0.0,41,0.00,,,0.00,WeatherTracker,2013-03-13 03:07:00,
2013-03-12 20:16:00,39.0,17.9,23.56,West,280,0.0,0.0,42,0.00,,,0.00,WeatherTracker,2013-03-13 03:16:00,
2013-03-12 20:26:00,38.7,18.6,23.56,West,280,0.0,0.0,44,0.00,,,0.00,WeatherTracker,2013-03-13 03:26:00,
2013-03-12 20:31:00,38.1,18.2,23.56,West,280,0.0,0.0,44,0.00,,,0.00,WeatherTracker,2013-03-13 03:31:00,
2013-03-12 20:41:00,37.9,18.5,23.56,West,280,0.0,0.0,45,0.00,,,0.00,WeatherTracker,2013-03-13 03:41:00,
2013-03-12 20:52:00,37.0,19.7,23.59,West,280,0.0,0.0,49,0.00,,,0.00,WeatherTracker,2013-03-13 03:52:00,
2013-03-12 21:01:00,36.9,19.5,23.59,West,280,0.0,0.0,49,0.00,,,0.00,WeatherTracker,2013-03-13 04:01:00,
2013-03-12 21:06:00,36.7,19.3,23.59,West,280,0.0,0.0,49,0.00,,,0.00,WeatherTracker,2013-03-13 04:06:00,
2013-03-12 21:16:00,36.1,18.4,23.56,West,280,0.0,0.0,48,0.00,,,0.00,WeatherTracker,2013-03-13 04:16:00,
2013-03-12 21:26:00,35.2,17.5,23.56,West,280,0.0,0.0,48,0.00,,,0.00,WeatherTracker,2013-03-13 04:26:00,
2013-03-12 21:36:00,35.2,18.0,23.59,West,280,0.0,0.0,49,0.00,,,0.00,WeatherTracker,2013-03-13 04:36:00,
2013-03-12 21:41:00,35.1,17.8,23.59,West,280,0.0,0.0,49,0.00,,,0.00,WeatherTracker,2013-03-13 04:41:00,
2013-03-12 21:51:00,34.5,17.8,23.59,West,280,0.0,0.0,50,0.00,,,0.00,WeatherTracker,2013-03-13 04:51:00,
2013-03-12 22:01:00,34.3,17.7,23.59,West,280,0.0,0.0,50,0.00,,,0.00,WeatherTracker,2013-03-13 05:01:00,
2013-03-12 22:06:00,34.3,17.7,23.59,West,280,0.0,0.0,50,0.00,,,0.00,WeatherTracker,2013-03-13 05:06:00,
2013-03-12 22:11:00,34.3,17.7,23.59,West,280,0.0,0.0,50,0.00,,,0.00,WeatherTracker,2013-03-13 05:11:00,
2013-03-12 22:16:00,34.2,17.5,23.59,West,280,0.0,0.0,50,0.00,,,0.00,WeatherTracker,2013-03-13 05:16:00,
2013-03-12 22:26:00,33.3,17.1,23.59,West,280,0.0,0.0,51,0.00,,,0.00,WeatherTracker,2013-03-13 05:26:00,
2013-03-12 22:36:00,32.9,17.2,23.59,West,280,0.0,0.0,52,0.00,,,0.00,WeatherTracker,2013-03-13 05:36:00,
2013-03-12 22:41:00,32.7,17.5,23.59,West,280,0.0,0.0,53,0.00,,,0.00,WeatherTracker,2013-03-13 05:41:00,
2013-03-12 22:51:00,32.5,16.9,23.59,West,280,0.0,0.0,52,0.00,,,0.00,WeatherTracker,2013-03-13 05:51:00,
2013-03-12 22:56:00,32.5,16.9,23.59,West,280,0.0,0.0,52,0.00,,,0.00,WeatherTracker,2013-03-13 05:56:00,
2013-03-12 23:01:00,32.4,16.7,23.59,West,280,0.0,0.0,52,0.00,,,0.00,WeatherTracker,2013-03-13 06:01:00,
2013-03-12 23:11:00,32.2,17.0,23.59,West,280,0.0,0.0,53,0.00,,,0.00,WeatherTracker,2013-03-13 06:11:00,
2013-03-12 23:21:00,31.8,17.1,23.59,West,280,0.0,0.0,54,0.00,,,0.00,WeatherTracker,2013-03-13 06:21:00,
2013-03-12 23:31:00,31.5,16.8,23.59,West,280,0.0,0.0,54,0.00,,,0.00,WeatherTracker,2013-03-13 06:31:00,
2013-03-12 23:37:00,31.1,16.4,23.59,West,280,0.0,0.0,54,0.00,,,0.00,WeatherTracker,2013-03-13 06:37:00,
2013-03-12 23:47:00,31.1,16.4,23.59,West,280,0.0,0.0,54,0.00,,,0.00,WeatherTracker,2013-03-13 06:47:00,
2013-03-12 23:56:00,30.6,15.9,23.59,West,280,0.0,0.0,54,0.00,,,0.00,WeatherTracker,2013-03-13 06:56:00,